Flag for U.S.A. Weather past 2 weeks in Menominee, Michigan, U.S.A.

Now
73 °F

Scattered clouds.


Feels Like: 77 °F
Forecast: 61 / 76 °F
Wind: 18 mph from Southwest

Location: Menominee Weather Reporting Station

Current Time: Jul 25, 2014 at 4:39:00 PM

Latest Report: Jul 25, 2014 at 3:55 PM


Visibility: 10 mi

Pressure: 29.86 "Hg

Humidity: 57%

Dew point: 57 °F

Location of MenomineeLocation

Historic Weather in Menominee — Graph

°F

Menominee temperature yesterday

Maximum temperature yesterday: 73 °F (at 2:35 PM)
Minimum temperature yesterday: 48 °F (at 4:15 AM)
Average temperature yesterday: 62 °F

Past Weeks' High & Low Weather Summary

 TemperatureHumidityPressure
High84 °F (Jul 21, 12:55 PM)94% (Jul 12, 11:35 PM)30.20 "Hg (Jul 12, 11:35 PM)
Low46 °F (Jul 17, 5:35 AM)31% (Jul 13, 4:35 PM)29.77 "Hg (Jul 14, 2:15 PM)
Average67 °F66%29.99 "Hg
* Reported Jul 10 3:15 PM — Jul 25 3:35 PM, Menominee, Weather by CustomWeather, © 2014

Note: Actual official high and low records may vary slightly from our data, if they occured in-between our weather recording intervals... More about our weather records

Advertising

Menominee weather history for previous 24 hours

 ConditionsComfort  
Time TempWeatherWind HumidityBarometerVisibility
3:35 PM
Jul 25
75 °FPassing clouds.13 mph54%29.86 "Hg10 mi
2:55 PM73 °FPassing clouds.12 mph61%29.87 "Hg10 mi
2:35 PM73 °FPassing clouds.14 mph61%29.88 "Hg10 mi
2:15 PM72 °FSunny.13 mph61%29.88 "Hg10 mi
1:55 PM72 °FSunny.12 mph61%29.89 "Hg10 mi
1:35 PM72 °FSunny.8 mph61%29.90 "Hg10 mi
1:15 PM72 °FSunny.12 mph61%29.88 "Hg10 mi
12:55 PM72 °FSunny.9 mph61%29.89 "Hg10 mi
12:35 PM72 °FPassing clouds.9 mph65%29.91 "Hg10 mi
12:15 PM70 °FPassing clouds.9 mph69%29.90 "Hg10 mi
11:55 AM70 °FSunny.7 mph64%29.91 "Hg10 mi
11:35 AM70 °FSunny.10 mph64%29.91 "Hg10 mi
11:15 AM70 °FSunny.7 mph60%29.90 "Hg10 mi
10:55 AM72 °FSunny.10 mph61%29.90 "Hg10 mi
10:35 AM72 °FSunny.9 mph61%29.90 "Hg10 mi
9:55 AM68 °FPassing clouds.6 mph69%29.91 "Hg10 mi
9:35 AM66 °FScattered clouds.6 mph68%29.93 "Hg10 mi
9:15 AM66 °FPassing clouds.6 mph68%29.93 "Hg10 mi
8:55 AM64 °FScattered clouds.6 mph73%29.95 "Hg10 mi
8:35 AM64 °FScattered clouds.7 mph68%29.95 "Hg10 mi
7:35 AM63 °FPartly sunny.7 mph68%29.96 "Hg10 mi
7:15 AM61 °FOvercast.6 mph68%29.97 "Hg10 mi
6:55 AM61 °FOvercast.7 mph68%29.98 "Hg10 mi
6:35 AM63 °FMostly cloudy.7 mph59%29.97 "Hg10 mi
6:15 AM61 °FMore clouds than sun.7 mph63%29.96 "Hg10 mi
5:55 AM61 °FPartly sunny.6 mph63%29.96 "Hg10 mi
5:35 AM61 °FSunny.6 mph63%29.95 "Hg10 mi
4:55 AM63 °FClear.7 mph56%29.96 "Hg10 mi
4:35 AM63 °FPassing clouds.7 mph56%29.94 "Hg10 mi
4:15 AM63 °FPassing clouds.7 mph59%29.94 "Hg10 mi
3:55 AM63 °FPassing clouds.7 mph59%29.95 "Hg10 mi
3:35 AM63 °FPassing clouds.5 mph59%29.96 "Hg10 mi
3:15 AM64 °FClear.7 mph60%29.96 "Hg10 mi
2:55 AM63 °FClear.7 mph59%29.97 "Hg10 mi
2:35 AM63 °FClear.6 mph59%29.98 "Hg10 mi
2:15 AM63 °FClear.10 mph59%29.99 "Hg10 mi
1:55 AM63 °FClear.10 mph59%29.99 "Hg10 mi
1:35 AM63 °FClear.9 mph59%29.98 "Hg10 mi
1:15 AM63 °FClear.9 mph59%29.98 "Hg10 mi
12:55 AM63 °FPassing clouds.10 mph59%29.99 "Hg10 mi
12:35 AM63 °FPassing clouds.10 mph59%30.00 "Hg10 mi
12:15 AM63 °FPassing clouds.10 mph59%30.00 "Hg10 mi
11:55 PM
Jul 24
63 °FPassing clouds.9 mph59%30.00 "Hg10 mi
11:35 PM63 °FPassing clouds.10 mph56%30.01 "Hg10 mi
11:15 PM61 °FClear.8 mph59%30.01 "Hg10 mi
10:55 PM61 °FClear.7 mph59%30.01 "Hg10 mi
10:35 PM63 °FClear.6 mph56%30.00 "Hg10 mi
10:15 PM63 °FClear.9 mph56%30.01 "Hg10 mi
9:55 PM63 °FClear.8 mph56%30.00 "Hg10 mi
9:35 PM63 °FClear.8 mph56%30.00 "Hg10 mi
9:15 PM64 °FPassing clouds.8 mph52%30.00 "Hg10 mi
8:55 PM64 °FPassing clouds.10 mph52%30.00 "Hg10 mi
8:35 PM64 °FPassing clouds.9 mph52%30.00 "Hg10 mi
8:15 PM64 °FSunny.8 mph56%30.00 "Hg10 mi
7:55 PM66 °FSunny.8 mph52%30.00 "Hg10 mi
7:35 PM66 °FSunny.12 mph52%30.01 "Hg10 mi
7:15 PM68 °FSunny.13 mph49%30.01 "Hg10 mi
6:55 PM70 °FSunny.9 mph46%30.01 "Hg10 mi
6:35 PM70 °FSunny.13 mph46%30.01 "Hg10 mi
6:15 PM70 °FSunny.15 mph46%30.02 "Hg10 mi
5:55 PM72 °FSunny.14 mph44%30.03 "Hg10 mi
5:35 PM73 °FSunny.15 mph47%30.03 "Hg10 mi
5:15 PM73 °FSunny.10 mph44%30.05 "Hg10 mi
4:55 PM73 °FSunny.9 mph44%30.05 "Hg10 mi
4:35 PM73 °FSunny.9 mph44%30.06 "Hg10 mi
Weather by CustomWeather, © 2014

See weather overviewHow to use our weather pages